Regional Weather Roundup
Issued by NWS

Home | Current Version | Previous Version | Text Only | Print | Product List | Glossary On
Versions: 1 2 3 4 5 6 7 8 9 10 11 12 13 14 15 16 17 18 19 20 21 22 23 24 25 26 27 28 29 30 31 32 33 34 35 36 37 38 39 40 41 42 43 44 45 46 47 48 49 50
000
ASUS44 KBMX 031610
RWRAL

ALABAMA REGIONAL WEATHER ROUNDUP
NATIONAL WEATHER SERVICE BIRMINGHAM AL
1100 AM CDT FRI JUL 03 2015

NOTE: "FAIR" INDICATES FEW OR NO CLOUDS BELOW 12,000 FEET
WITH NO SIGNIFICANT WEATHER AND/OR OBSTRUCTIONS TO VISIBILITY.

THE REMARK "TC" DENOTES TEMPERATURE IN DEGREES CELSIUS.

ALZ001>011-014-016>018-020-031700-
NORTH ALABAMA

CITY           SKY/WX    TMP DP  RH WIND       PRES   REMARKS
MUSCLE SHOALS  TSTM      71  67  87 W13       30.00S
HUNTSVILLE     RAIN      74  72  93 W10       30.00R FOG
DECATUR        LGT RAIN  71  69  93 W12       29.99R
HALEYVILLE     HVY RAIN  69  69 100 CALM      30.06R FOG
GADSDEN        CLOUDY    81  64  57 SW7       30.01F
$$

ALZ012-013-022-023-030>036-040>044-031700-
WEST CENTRAL ALABAMA

CITY           SKY/WX    TMP DP  RH WIND       PRES   REMARKS
TUSCALOOSA     CLOUDY    83  71  67 SW10      30.03S
$$

ALZ015-024>027-033>036-040>044-031700-
CENTRAL ALABAMA

CITY           SKY/WX    TMP DP  RH WIND       PRES   REMARKS
BIRMINGHAM     CLOUDY    76  70  82 W5        30.06F
MONTGOMERY     PTSUNNY   87  72  60 W14G23    30.06R HX  93
SHELBY CO ARPT CLOUDY    81  72  74 SW10G17   30.05S
MAXWELL AFB    NOT AVBL
GREENVILLE     FAIR      85  73  67 SW6       30.06S HX  91
$$

ALZ019-021-028-029-037-038-045>048-031700-
EAST CENTRAL ALABAMA

CITY           SKY/WX    TMP DP  RH WIND       PRES   REMARKS
ANNISTON       CLOUDY    74  69  85 SW8       30.05S
ALEXANDER CITY PTSUNNY   81  68  63 W6        30.06S
AUBURN         PTSUNNY   82  70  65 SW8       30.08R
$$

ALZ051>064-031700-
SOUTHWEST ALABAMA

CITY           SKY/WX    TMP DP  RH WIND       PRES   REMARKS
MOBILE         PTSUNNY   87  75  67 W7        30.08S HX  96
BROOKLEY FIELD PTSUNNY   87  75  67 VRB5      30.08S HX  96
EVERGREEN      MOSUNNY   87  73  62 W10G17    30.07S HX  94
$$

ALZ049-050-065>069-031700-
SOUTHEAST ALABAMA

CITY           SKY/WX    TMP DP  RH WIND       PRES   REMARKS
DOTHAN         PTSUNNY   86  74  67 SW13G18   30.11S HX  94
OZARK          PTSUNNY   86  75  70 W10       30.07S HX  95
TROY           MOSUNNY   87  73  62 VRB7G21   30.07S HX  94
EUFAULA        FAIR      89  74  60 SW9       30.04S HX  98
$$


USA.gov is the U.S. government's official web portal to all federal, state and local government web resources and services.